Flag for Canada Weather past 2 weeks in Qikiqtarjuaq, Nunavut, Canada

Now
36 °F

Overcast.


Feels Like: 29 °F
Forecast: 29 / 37 °F
Wind: 8 mph from Southwest

Location: Broughton Island Airport

Current Time: Jul 2, 2015 at 6:11:14 AM

Latest Report: Jul 2, 2015 at 5:00 AM


Visibility: 9 mi

Pressure: 29.99 "Hg

Humidity: 87%

Dew point: 32 °F

Location of QikiqtarjuaqLocation

Historic Weather in Qikiqtarjuaq — Graph

°F

Qikiqtarjuaq temperature yesterday

Maximum temperature yesterday: 36 °F (at 11:59 AM)
Minimum temperature yesterday: 32 °F (at 12:00 AM)
Average temperature yesterday: 34 °F

Past Weeks' High & Low Weather Summary

 TemperatureHumidityPressure
High48 °F (Jun 23, 11:00 AM)100% (Jun 17, 10:00 PM)30.04 "Hg (Jun 17, 10:00 PM)
Low25 °F (Jun 18, 2:00 AM)50% (Jun 23, 11:00 AM)29.54 "Hg (Jun 20, 6:00 PM)
Average33 °F89%29.83 "Hg
* Reported Jun 17 5:00 AM — Jul 2 5:00 AM, Qikiqtarjuaq, Weather by CustomWeather, © 2015

Note: Actual official high and low records may vary slightly from our data, if they occured in-between our weather recording intervals... More about our weather records

Advertising

Qikiqtarjuaq weather history for previous 24 hours

 ConditionsComfort  
Time TempWeatherWind HumidityBarometerVisibility
5:00 AM
Thu, Jul 2
36 °FOvercast.8 mph87%29.99 "Hg9 mi
4:00 AM36 °FOvercast.10 mph93%29.99 "Hg9 mi
3:00 AM36 °FOvercast.13 mph93%29.99 "Hg9 mi
2:00 AM36 °FMore clouds than sun.7 mph93%29.99 "Hg9 mi
1:00 AM36 °FOvercast.6 mph93%30.00 "Hg9 mi
12:00 AM36 °FOvercast.5 mph93%30.00 "Hg9 mi
11:00 PM
Wed, Jul 1
36 °FOvercast.3 mph93%30.00 "Hg9 mi
10:00 PM36 °FOvercast.7 mph93%30.00 "Hg9 mi
9:00 PM36 °FPartly sunny.3 mph93%30.01 "Hg9 mi
8:00 PM34 °FPartly sunny.2 mph100%30.01 "Hg9 mi
7:00 PM34 °FMostly cloudy.5 mph93%30.01 "Hg9 mi
6:00 PM34 °FPassing clouds.5 mph100%30.01 "Hg9 mi
5:00 PM36 °FPartly sunny.6 mph93%30.00 "Hg9 mi
4:00 PM36 °FPartly sunny.5 mph93%30.00 "Hg9 mi
3:00 PM36 °FLight rain. Mostly cloudy.3 mph93%30.01 "Hg9 mi
2:00 PM36 °FOvercast.3 mph93%30.00 "Hg9 mi
1:00 PM36 °FLight rain. Cloudy.5 mph93%30.00 "Hg9 mi
12:56 PM36 °FLight rain. Cloudy.3 mph93%30.00 "Hg9 mi
12:00 PM36 °FMostly cloudy.5 mph93%30.00 "Hg9 mi
11:59 AM36 °FMostly cloudy.5 mph93%30.00 "Hg9 mi
11:03 AM34 °FLight rain. Mostly cloudy.3 mph93%30.01 "Hg9 mi
10:00 AM34 °FLight rain. More clouds than sun.3 mph100%30.01 "Hg12 mi
9:00 AM34 °FLight rain. Cloudy.2 mph100%30.02 "Hg12 mi
8:00 AM34 °FLight rain. Fog.No wind93%30.02 "Hg4 mi
7:46 AM34 °FLight rain. More clouds than sun.2 mph93%30.01 "Hg12 mi
6:00 AM32 °FLight rain. Fog.3 mph100%30.01 "Hg1 mi
Weather by CustomWeather, © 2015

See weather overviewHow to use our weather pages